• In Hungary
  • List of Countries
  • For 7 days
  • Water Temperature
  • Satellite Maps
  • Weather Map
  • News
  • Weather Widgets
  • user-avatar
    Login

    Hourly Weather Sarakamysh

    Today, 21 August, Tuesday

    Time Temperature Precipitation Wind Pressure Humidity
    00:00 +15°C° 0 mm 1 mps 744 mmHg 61%
    01:00 +15°C° 0 mm 1 mps 744 mmHg 63%
    02:00 +15°C° 0 mm 1 mps 744 mmHg 63%
    03:00 +14°C° 0 mm 1 mps 744 mmHg 64%
    04:00 +14°C° 0 mm 2 mps 744 mmHg 61%
    05:00 +15°C° 0 mm 2 mps 744 mmHg 58%
    06:00 +16°C° 0 mm 2 mps 744 mmHg 56%
    07:00 +17°C° 0 mm 2 mps 744 mmHg 54%
    08:00 +19°C° 0 mm 2 mps 744 mmHg 49%
    09:00 +21°C° 0 mm 3 mps 744 mmHg 45%
    10:00 +24°C° 0 mm 3 mps 744 mmHg 41%
    11:00 +25°C° 0 mm 4 mps 744 mmHg 39%
    12:00 +26°C° 0 mm 4 mps 744 mmHg 37%
    13:00 +27°C° 0 mm 5 mps 744 mmHg 35%
    14:00 +28°C° 0 mm 5 mps 744 mmHg 35%
    15:00 +28°C° 0 mm 5 mps 743 mmHg 35%
    16:00 +28°C° 0 mm 5 mps 743 mmHg 36%
    17:00 +27°C° 0 mm 5 mps 743 mmHg 39%
    18:00 +26°C° 0 mm 4 mps 743 mmHg 42%
    19:00 +25°C° 0 mm 3 mps 743 mmHg 45%
    20:00 +25°C° 0 mm 3 mps 743 mmHg 47%
    21:00 +24°C° 0 mm 3 mps 742 mmHg 48%
    22:00 +22°C° 0 mm 3 mps 742 mmHg 49%
    23:00 +22°C° 0 mm 3 mps 742 mmHg 49%

    Tomorrow, 22 August, Wednesday

    Time Temperature Precipitation Wind Pressure Humidity
    00:00 +21°C° 0 mm 3 mps 742 mmHg 50%
    01:00 +21°C° 0 mm 3 mps 742 mmHg 50%
    02:00 +20°C° 0 mm 3 mps 742 mmHg 50%
    03:00 +20°C° 0 mm 3 mps 742 mmHg 50%
    04:00 +19°C° 0 mm 3 mps 742 mmHg 50%
    05:00 +20°C° 0 mm 3 mps 742 mmHg 49%
    06:00 +20°C° 0 mm 3 mps 742 mmHg 48%
    07:00 +21°C° 0 mm 3 mps 742 mmHg 47%
    08:00 +24°C° 0 mm 3 mps 742 mmHg 42%
    09:00 +26°C° 0 mm 4 mps 742 mmHg 37%
    10:00 +28°C° 0 mm 4 mps 742 mmHg 32%
    11:00 +29°C° 0 mm 5 mps 742 mmHg 29%
    12:00 +30°C° 0 mm 6 mps 742 mmHg 27%
    13:00 +32°C° 0 mm 6 mps 742 mmHg 24%
    14:00 +32°C° 0 mm 6 mps 741 mmHg 23%
    15:00 +32°C° 0 mm 7 mps 741 mmHg 22%
    16:00 +32°C° 0 mm 7 mps 741 mmHg 21%
    17:00 +29°C° 0 mm 5 mps 740 mmHg 24%
    18:00 +28°C° 0 mm 4 mps 740 mmHg 27%
    19:00 +26°C° 0 mm 3 mps 740 mmHg 31%
    20:00 +25°C° 0 mm 3 mps 740 mmHg 31%
    21:00 +25°C° 0 mm 4 mps 740 mmHg 30%
    22:00 +23°C° 0 mm 4 mps 740 mmHg 30%
    23:00 +22°C° 0 mm 4 mps 739 mmHg 30%

    Day after tomorrow, 23 August, Thursday

    Time Temperature Precipitation Wind Pressure Humidity
    00:00 +22°C° 0 mm 4 mps 739 mmHg 30%
    01:00 +21°C° 0 mm 4 mps 739 mmHg 30%
    02:00 +20°C° 0 mm 4 mps 739 mmHg 38%
    03:00 +19°C° 0 mm 4 mps 739 mmHg 46%
    04:00 +18°C° 0 mm 3 mps 739 mmHg 55%
    05:00 +18°C° 0.5 mm 3 mps 739 mmHg 62%
    06:00 +18°C° 0.5 mm 3 mps 739 mmHg 70%
    07:00 +17°C° 0.5 mm 3 mps 739 mmHg 77%
    08:00 +18°C° 0.2 mm 4 mps 739 mmHg 70%
    09:00 +19°C° 0.2 mm 5 mps 739 mmHg 64%
    10:00 +20°C° 0.2 mm 6 mps 740 mmHg 58%
    11:00 +21°C° 0 mm 6 mps 740 mmHg 52%
    12:00 +22°C° 0 mm 6 mps 740 mmHg 46%
    13:00 +22°C° 0 mm 6 mps 740 mmHg 40%
    14:00 +22°C° 0 mm 6 mps 740 mmHg 40%
    15:00 +22°C° 0 mm 7 mps 740 mmHg 41%
    16:00 +22°C° 0 mm 7 mps 740 mmHg 42%
    17:00 +21°C° 0 mm 6 mps 741 mmHg 45%
    18:00 +20°C° 0 mm 6 mps 741 mmHg 48%
    19:00 +19°C° 0 mm 5 mps 741 mmHg 51%
    20:00 +17°C° 0 mm 5 mps 742 mmHg 55%
    21:00 +16°C° 0 mm 5 mps 742 mmHg 59%
    22:00 +15°C° 0 mm 4 mps 743 mmHg 63%
    23:00 +14°C° 0 mm 4 mps 743 mmHg 66%

    24 August, Friday

    Time Temperature Precipitation Wind Pressure Humidity
    00:00 +13°C° 0 mm 4 mps 743 mmHg 69%
    01:00 +12°C° 0 mm 4 mps 744 mmHg 72%
    02:00 +12°C° 0 mm 4 mps 744 mmHg 74%
    03:00 +11°C° 0 mm 4 mps 744 mmHg 76%
    04:00 +10°C° 0 mm 4 mps 744 mmHg 77%
    05:00 +11°C° 0 mm 4 mps 744 mmHg 74%
    06:00 +10°C° 0 mm 5 mps 744 mmHg 70%
    07:00 +10°C° 0 mm 5 mps 744 mmHg 67%
    08:00 +13°C° 0 mm 6 mps 744 mmHg 60%
    09:00 +14°C° 0 mm 7 mps 744 mmHg 53%
    10:00 +16°C° 0 mm 7 mps 744 mmHg 46%
    11:00 +17°C° 0 mm 7 mps 744 mmHg 44%
    12:00 +17°C° 0 mm 7 mps 743 mmHg 42%
    13:00 +18°C° 0 mm 8 mps 743 mmHg 40%
    14:00 +18°C° 0 mm 7 mps 743 mmHg 41%
    15:00 +18°C° 0 mm 7 mps 743 mmHg 42%
    16:00 +17°C° 0 mm 7 mps 743 mmHg 43%
    17:00 +17°C° 0.1 mm 6 mps 743 mmHg 48%
    18:00 +16°C° 0.1 mm 6 mps 743 mmHg 53%
    19:00 +15°C° 0.1 mm 5 mps 742 mmHg 58%
    20:00 +14°C° 0 mm 4 mps 743 mmHg 63%
    21:00 +14°C° 0 mm 4 mps 743 mmHg 68%
    22:00 +13°C° 0 mm 4 mps 743 mmHg 74%
    23:00 +12°C° 0 mm 4 mps 743 mmHg 77%

    25 August, Saturday

    Time Temperature Precipitation Wind Pressure Humidity
    00:00 +12°C° 0 mm 4 mps 743 mmHg 80%
    01:00 +11°C° 0 mm 4 mps 742 mmHg 83%
    02:00 +11°C° 0 mm 4 mps 742 mmHg 83%
    03:00 +10°C° 0 mm 5 mps 742 mmHg 83%
    04:00 +10°C° 0 mm 5 mps 742 mmHg 83%
    05:00 +12°C° 0 mm 5 mps 742 mmHg 81%
    06:00 +11°C° 0 mm 6 mps 743 mmHg 78%
    07:00 +13°C° 0 mm 6 mps 743 mmHg 76%
    08:00 +14°C° 0 mm 6 mps 743 mmHg 71%
    09:00 +15°C° 0 mm 6 mps 743 mmHg 66%
    10:00 +17°C° 0 mm 6 mps 743 mmHg 60%
    11:00 +19°C° 0 mm 6 mps 743 mmHg 57%
    12:00 +20°C° 0 mm 7 mps 743 mmHg 54%
    13:00 +22°C° 0 mm 7 mps 743 mmHg 50%
    14:00 +22°C° 0 mm 7 mps 743 mmHg 50%
    15:00 +22°C° 0 mm 7 mps 743 mmHg 51%
    16:00 +22°C° 0 mm 7 mps 743 mmHg 51%
    17:00 +21°C° 0 mm 6 mps 743 mmHg 55%
    18:00 +20°C° 0 mm 5 mps 743 mmHg 59%
    19:00 +19°C° 0 mm 4 mps 743 mmHg 64%
    20:00 +18°C° 0 mm 4 mps 744 mmHg 69%
    21:00 +17°C° 0 mm 4 mps 744 mmHg 74%
    22:00 +16°C° 0 mm 3 mps 744 mmHg 79%
    23:00 +16°C° 0 mm 3 mps 744 mmHg 82%

    26 August, Sunday

    Time Temperature Precipitation Wind Pressure Humidity
    00:00 +14°C° 0 mm 3 mps 744 mmHg 86%
    01:00 +13°C° 0 mm 3 mps 744 mmHg 89%
    02:00 +13°C° 0 mm 3 mps 744 mmHg 90%
    03:00 +14°C° 0 mm 2 mps 744 mmHg 92%
    04:00 +13°C° 0 mm 2 mps 744 mmHg 93%
    05:00 +14°C° 0 mm 2 mps 744 mmHg 90%
    06:00 +13°C° 0 mm 3 mps 744 mmHg 86%
    07:00 +14°C° 0 mm 3 mps 745 mmHg 83%
    08:00 +17°C° 0 mm 3 mps 745 mmHg 74%
    09:00 +19°C° 0 mm 4 mps 745 mmHg 64%
    10:00 +21°C° 0 mm 4 mps 744 mmHg 55%
    11:00 +22°C° 0 mm 5 mps 744 mmHg 50%
    12:00 +25°C° 0 mm 5 mps 744 mmHg 45%
    13:00 +26°C° 0 mm 5 mps 744 mmHg 40%
    14:00 +26°C° 0 mm 6 mps 743 mmHg 39%
    15:00 +26°C° 0 mm 6 mps 743 mmHg 39%
    16:00 +26°C° 0 mm 6 mps 743 mmHg 39%
    17:00 +25°C° 0 mm 5 mps 743 mmHg 43%
    18:00 +23°C° 0 mm 4 mps 743 mmHg 48%
    19:00 +22°C° 0 mm 4 mps 743 mmHg 52%
    20:00 +21°C° 0 mm 4 mps 743 mmHg 57%
    21:00 +20°C° 0 mm 4 mps 743 mmHg 61%
    22:00 +18°C° 0 mm 4 mps 743 mmHg 66%
    23:00 +18°C° 0 mm 3 mps 743 mmHg 67%
    Show more